SL-3 R/B (4814 NORAD) Tracking and Keplerian Element Data

This shows tracking and keplerian element data for the satellite.

Feedback or suggestion? Click here.




ElementValue
Catalog4814
NameSL-3 R/B
Epoch Orbit90384
Epoch Day13.1173868
Epoch Year2024
RAAN9.8454
Inclination81.1248
Eccentricity0.0010984
Argument of Perigee66.3118
Mean Anonmoly293.9294
Mean Motion15.7660022
Decay Rate0.00107793
L11 04814U 70113B 24013.11738680 .00107793 00000+0 66854-3 0 9991
L22 04814 81.1248 9.8454 0010984 66.3118 293.9294 15.76600220903841



Live tracking and technical data element details for SL-3 R/B (NORAD 4814). SL-3 R/B can be tracked NOW for your location showing map with azimuth and elevation plus other details from your city location.







IsCatalogInMostPopularTable: catalog: 4814, numindb: 297
Update: records affected: 1



GetName: 4814 SL-3 R/B

Hit Count: updated at: Fri, 19 Apr 2024 11:49:17 GMT